国际通讯卫星 3-F6星 (INTELSAT 3-F6)

导读 | 豆包AI

INTELSAT 3-F6是由国际通信卫星组织(ITSO)于1970年1月15日08:00发射的通信卫星,属于国际通信卫星3系列,是早期全球通信卫星网络的重要组成部分。该系列卫星旨在推动跨洋通信基础设施建设,为全球广播电视、国际电话等业务提供空间转发支撑,标志着全球卫星通信组网的早期探索实践,在商用卫星通信发展历程中具备标志性意义。

基本信息
目录编号:
4297
目录名称:
INTELSAT 3-F6
国际标识:
1970-003A
轨道中心:
EARTH
卫星名称:
国际通讯卫星 3-F6星
卫星全名:
国际通讯卫星 3-F6星 (INTELSAT 3-F6)
卫星状态:
在轨 (已飞行20533 天)
发射日期:
1970-01-15 UTC
国别 :
(ITSO)
星等 :
--
轨道信息
数据来源 国际轨道数据
星历时间: 2026-04-04T02:34:55+0800
8小时前
查看轨道信息
半长轴: 42479.543km
偏心率: 0.0011811
轨道倾角: 0.892°
近地点辐角 258.544°
升交点赤经 91.491°
平近点角 251.608°
近地点: 36051.233km
远地点: 36151.579km
周期: 1452.210分钟
每日圈数: 0.991592
详细信息
卫星平台:
Intelsat
平衡模式:
自旋稳定
覆盖范围:
全球
运营商:
国际卫星通信公司
运营商所在国:
美国
制造商(研发单位):
天合汽车集团
制造商所在国:
美国
使用方式:
暂无
卫星简介
从1965年4月至1984年3月,国际通信卫星组织发射了5代、6种不同性能的卫星共计35颗,除6颗卫星因运载火箭和远地点发动机故障而发射失败外,其余29颗卫星均被送到了预定的静止轨道位置。1984年8月前后,国际通信卫星组织利用部署在大西洋、太平洋、印度洋上空的15颗国际通信卫星,为遍布世界各地170多个国家或地区提供电话、电传、电报、电视和数据传输等电信业务;该卫星已退役。
2D轨道图
3D轨道图
轨道高度分析图
轨道倾角分析图
轨道综合分析图
查看轨道综合分析图